JCSAT-13

Last updated on Fri Nov 07 2025 00:02:49 GMT+0000 (Coordinated Universal Time)

1 38331U 12023A 25310.20130470 -.00000346 00000+0 00000+0 0 9996 2 38331 0.0041 42.6036 0002852 195.1064 4.4631 1.00271097 49300
UTC large
Height (km)
Speed (km/s)
/
Latitude / Longitude
Inclination (degrees)
Orbital Period (minutes)
Azimuth
Elevation
Range (km)
Doppler Factor

Next 0 passes for location: London (51.5072 / 0.1276)

Sorry there are no passes over London.